Witan Abimanyu

Chefscout - Bhayangkara Presisi
22 Feb 2028
Dienstag
Verarbeitung

Persönlichkeit

Anpassungsfähigkeit (14) Ehrgeiz (20) Kontroverse (17) Loyalität (12) Druck (10) Professionalität (9) Fairness (18) Temperament (6)

Profil

Trainerstil Demokratisch
Lizenz Kontinentale B
Entschlossenheit 3
Menschenführung 10
Motivation 3
Disziplin 4
Arbeitszufriedenheit
100%
Ermüdung
0%
Rolle Chefscout
Gehalt 39.0K p/W
Vertrag 14.03.2028

Leistung

Verhalten Gut
Trainingseffektivität
33%
Spielerentwicklung
15%
Verletzungsprävention
40%
Taktische Umsetzung
45%

Letzte Ereignisse

Vertragsverhandlung begonnen jetzt
Spieler begutachtet jetzt
Spieler begutachtet 7T her
Vertragsverhandlung begonnen 7T her
Spieler begutachtet 7T her
Vertragsverhandlung begonnen 7T her
Spiel beobachtet 7T her
Vertragsverhandlung begonnen 7T her

Aktuell beobachtet

151
Spieler Verein Status Fähigkeit Vertrauen Beobachtet Zuletzt beobachtet Letzte Stimme
Said Aliev Rotor Aktiv 93 / 102 40% 2 21.02.2028 -
Cristhian Medina Dinamo Brest Aktiv 87 / 88 40% 13 21.02.2028 -
Nikita Golub Belshina Aktiv 96 / 66 40% 2 21.02.2028 -
Arseny Filev Chaika Aktiv 93 / 91 40% 1 21.02.2028 -
Derrick Kyere Lokeren Aktiv 110 / 92 40% 1 21.02.2028 -
Mohamed Konaté Nizhniy Novgorod Aktiv 107 / 111 40% 1 21.02.2028 -
Luca Vido Union Brescia Aktiv 110 / 121 40% 2 18.02.2028 -
Marcelo Orellana Vis Pesaro Aktiv 110 / 130 40% 1 18.02.2028 -
Tommaso Gabellini Cittadella Aktiv 102 / 101 40% 1 18.02.2028 -
Leon Sabua Fakel Aktiv 94 / 111 40% 3 17.02.2028 -
Vlatko Stojanovski Mashal Aktiv 102 / 89 40% 10 17.02.2028 -
Gonzalo Córdoba Adelaide United Aktiv 116 / 126 40% 2 17.02.2028 -
Migran Ageyan Ufa Aktiv 98 / 83 40% 2 16.02.2028 -
Sulayman Jallow Vis Pesaro Aktiv 100 / 109 40% 1 16.02.2028 -
Alexandr Dolgov Amkar Aktiv 98 / 88 40% 1 16.02.2028 -
Vladislav Fedosov Slutsk Aktiv 88 / 78 40% 2 15.02.2028 -
Georgy Melkadze Akhmat Grozny Aktiv 123 / 116 40% 3 15.02.2028 -
Ihor Horbach Zorya Aktiv 111 / 115 40% 1 15.02.2028 -
Andrés Dieppa Metalurh Zaporizhzhia Aktiv 108 / 115 40% 2 14.02.2028 -
Pierluca Luciani Ravenna Aktiv 104 / 99 40% 2 14.02.2028 -
Kirill Moiseev Rostov Aktiv 97 / 88 40% 2 14.02.2028 -
Kirill Kirilenko Dnepr Mogilev Aktiv 83 / 113 40% 4 13.02.2028 -
Vladislav Lozhkin Dinamo Brest Aktiv 105 / 103 40% 2 13.02.2028 -
Kirill Zinovich Dinamo Makhachkala Aktiv 99 / 119 40% 2 13.02.2028 -
Oliver Jürgens Lida Aktiv 95 / 78 40% 1 13.02.2028 -
Alessandro Galeandro Campobasso Aktiv 109 / 81 40% 1 13.02.2028 -
Carlos Torres Orenburg Aktiv 99 / 119 40% 3 11.02.2028 -
Daniil Konoplev Dinamo Bryansk Aktiv 96 / 63 40% 2 11.02.2028 -
Vladislav Yakovlev Volga Aktiv 103 / 86 40% 3 10.02.2028 -
Ognjen Bondžulić Mladost Lucani Aktiv 102 / 130 40% 2 10.02.2028 -
Vladislav Sarveli Nizhniy Novgorod Aktiv 124 / 91 40% 1 10.02.2028 -
Fernando Mimbacas Juventud Aktiv 116 / 118 40% 1 09.02.2028 -
Ged Garner Newport County Aktiv 104 / 82 40% 3 07.02.2028 -
Ricardo Dinanga Shrewsbury Town Aktiv 83 / 93 40% 2 07.02.2028 -
Denis Mironov Shinnik Aktiv 83 / 73 40% 2 05.02.2028 -
Charlie Brown Accrington Stanley Aktiv 80 / 96 40% 3 04.02.2028 -
Georgy Gongadze Ufa Aktiv 101 / 105 40% 1 04.02.2028 -
Sávio PSM Aktiv 95 / 102 40% 9 31.01.2028 -
Alan Bonansea Colón Aktiv 120 / 98 40% 8 31.01.2028 -
Rizky Pellu Maluku Utara United Abgelehnt 77 / 84 65% 1 31.01.2028 Ablehnen
Patryk Szwedzik Ruch Aktiv 105 / 109 40% 1 31.01.2028 -
Anderson Gutiérrez Chelyabinsk Aktiv 109 / 88 40% 2 30.01.2028 -
Esteban da Silva Racing Aktiv 105 / 112 40% 13 30.01.2028 -
Nermin Haljeta PSIM Aktiv 100 / 102 40% 11 30.01.2028 -
Jonathan Filipe Spartak Kostroma Aktiv 82 / 84 40% 2 29.01.2028 -
Lucas Carrizo Plaza Colonia Aktiv 125 / 96 40% 14 29.01.2028 -
Sheriddin Boboev PSM Aktiv 98 / 87 40% 7 29.01.2028 -
Jere Vrcić Birkirkara Aktiv 109 / 110 40% 3 28.01.2028 -
Lucas Pedraza Defensores Unidos Aktiv 115 / 89 40% 7 28.01.2028 -
Nicolás Heiz Maipú Aktiv 111 / 105 40% 9 28.01.2028 -
Javier Martínez Almirante Brown Aktiv 101 / 101 40% 8 28.01.2028 -
Kevin Isa Luna Central Norte Aktiv 108 / 105 40% 3 28.01.2028 -
Gianluca Pugliese Güemes Aktiv 110 / 128 40% 9 26.01.2028 -
Kianz Froese Semen Padang Aktiv 111 / 109 40% 9 26.01.2028 -
Anton Fase PSIM Aktiv 100 / 107 40% 2 25.01.2028 -
Mauricio Lacerda Miramar Misiones Aktiv 89 / 91 40% 1 25.01.2028 -
Matías Samaniego Talleres Aktiv 107 / 107 40% 9 24.01.2028 -
Karen Vardanyan Dinamo Minsk Aktiv 89 / 86 40% 3 24.01.2028 -
Magomed Nasibov Pobeda Aktiv 101 / 102 40% 1 24.01.2028 -
Santiago Apa All Boys Aktiv 108 / 123 40% 7 22.01.2028 -
Marco Miori Alvarado Aktiv 116 / 117 40% 8 22.01.2028 -
Juan Rocca Gimnasia y Tiro Aktiv 104 / 98 40% 9 21.01.2028 -
Germán Cervera Alvarado Aktiv 94 / 89 40% 5 21.01.2028 -
Kerfala Cissoko Rodina Aktiv 113 / 120 40% 1 21.01.2028 -
Sebastián Cocimano Nueva Chicago Aktiv 111 / 130 40% 2 19.01.2028 -
Maxim Kutovoy Salyut Aktiv 76 / 103 40% 1 19.01.2028 -
Mihailo Perović Persebaya Aktiv 91 / 89 40% 9 15.01.2028 -
Gustavo Viera Cerro Largo Aktiv 92 / 115 40% 6 15.01.2028 -
Jhon Flor Sokol Aktiv 109 / 117 40% 3 14.01.2028 -
Sudi Abdallah Persijap Aktiv 102 / 79 40% 9 14.01.2028 -
Gustavo Rodriguez Valledupar Aktiv 115 / 109 40% 4 14.01.2028 -
Santiago Rodríguez Gimnasia y Esgrima Aktiv 123 / 101 40% 2 12.01.2028 -
Kodai Tanaka PSM Aktiv 96 / 101 40% 9 09.01.2028 -
Eugenio Olivera Talleres Aktiv 92 / 89 40% 7 09.01.2028 -
Mauro Valiente Estudiantes Aktiv 120 / 123 40% 1 09.01.2028 -
Cristian Rivas Bogota Aktiv 114 / 98 40% 10 08.01.2028 -
Iuri Tavares NK Varazdin Aktiv 113 / 126 40% 1 08.01.2028 -
Iván Fernández Colegiales Aktiv 108 / 85 40% 2 07.01.2028 -
Dejan Tumbas Persis Aktiv 104 / 87 40% 6 04.01.2028 -
Elías Ayala Madryn Aktiv 107 / 124 40% 8 03.01.2028 -
Ilja Zhbanov Akron Abgelehnt 90 / 94 69% 1 01.01.2028 Ablehnen
Nikita Trapitsyn Zenit Abgelehnt 74 / 75 69% 1 01.01.2028 Ablehnen
Diego Armando Díaz Unión de Santa Fe Aktiv 124 / 108 40% 1 01.01.2028 -
Augusto Berrondo Tristán Suárez Aktiv 100 / 124 40% 12 31.12.2027 -
Dalberto Arema Aktiv 107 / 95 40% 2 30.12.2027 -
Naoufel Zerhouni Persib Aktiv 104 / 123 40% 4 30.12.2027 -
Alan Sombra Defensores Unidos Abgelehnt 99 / 103 40% 1 30.12.2027 Mehr Infos nötig
Dylan Cabral Arsenal Aktiv 96 / 93 40% 5 29.12.2027 -
Genaro Rossi San Martín SJ Aktiv 101 / 99 40% 2 26.12.2027 -
Juan Mendoza Güemes Aktiv 105 / 86 40% 10 26.12.2027 -
José Sequera Deportivo Tachira Aktiv 82 / 95 40% 1 26.12.2027 -
Kimarni Smith Newport County Aktiv 109 / 82 40% 1 26.12.2027 -
Jort van der Sande Bali United Aktiv 115 / 109 40% 5 25.12.2027 -
Andrew Jung Persib Aktiv 110 / 111 40% 4 25.12.2027 -
Renzo Reynaga Patronato Aktiv 121 / 118 40% 4 21.12.2027 -
Abel Argañaraz Gimnasia y Esgrima Aktiv 105 / 121 40% 7 18.12.2027 -
Alexey Antilevskiy Slavia Mozyr Aktiv 106 / 91 40% 3 14.12.2027 -
Ezra Walian Persik Aktiv 111 / 88 40% 5 08.12.2027 -
Juan David Rueda Alianza Petrolera Abgelehnt 106 / 106 40% 1 04.12.2027 Mehr Infos nötig
Steven Alfred Torpedo-BelAZ Aktiv 103 / 83 40% 6 28.11.2027 -
Daouda Natama Minsk Aktiv 106 / 80 40% 2 28.11.2027 -
Nicolás Ferreyra Gimnasia y Esgrima Aktiv 112 / 106 40% 4 27.11.2027 -
Gustavo França Arema Aktiv 103 / 111 40% 2 24.11.2027 -
Luca Franco Arsenal Aktiv 118 / 116 40% 10 23.11.2027 -
Joaquín Avilés Cerrito Aktiv 99 / 107 40% 1 09.11.2027 -
Shungu Dutiro FCI Tallinn Aktiv 77 / 72 40% 2 02.11.2027 -
Nicolás Matamoros Santiago Wanderers Aktiv 106 / 93 40% 2 25.10.2027 -
Jesús Amarilla Naftan Aktiv 81 / 84 40% 4 24.10.2027 -
Federico Álvarez Atlanta Aktiv 113 / 92 40% 2 19.10.2027 -
Nahuel Olmedo Real Cartagena Aktiv 100 / 84 40% 1 11.10.2027 -
Evgeniy Malashevich Dinamo Brest Aktiv 101 / 109 40% 2 06.10.2027 -
Owen Falconis Cerrito Aktiv 94 / 112 40% 1 29.09.2027 -
Facundo Castelli Estudiantes Aktiv 129 / 101 40% 1 25.09.2027 -
Alejandro Quintana Atlanta Aktiv 106 / 98 40% 1 24.09.2027 -
Alexander Jeremejeff Persija Aktiv 115 / 114 40% 3 19.09.2027 -
Eduardo Esterilla Deportes Quindio Aktiv 86 / 85 40% 1 09.09.2027 -
Nahuel Marzochi Colon Aktiv 85 / 101 40% 1 08.09.2027 -
Koldo Obieta Borneo Aktiv 105 / 104 40% 2 07.09.2027 -
Mauro Schönfeld Morón Aktiv 115 / 94 40% 1 07.09.2027 -
Angel Uñates Güemes Aktiv 78 / 107 40% 2 28.08.2027 -
Nicolás Iachetti San Martín SJ Aktiv 100 / 78 40% 1 27.08.2027 -
Boris Kopitović Bali United Aktiv 82 / 81 40% 1 27.08.2027 -
Adrián Dalmau PSIM Aktiv 114 / 95 40% 2 24.08.2027 -
Ezequiel Aguirre Defensores Aktiv 108 / 112 40% 1 24.08.2027 -
Lucas Morelatto Persijap Aktiv 103 / 109 40% 1 23.08.2027 -
Pablo Viudez Rentistas Aktiv 99 / 94 40% 2 19.08.2027 -
Destiny Efosa Egharevba Picerno Aktiv 94 / 116 40% 4 10.08.2027 -
Agustín Rodríguez Colon Aktiv 94 / 96 40% 1 05.08.2027 -
Rustam Ismailov Obod Aktiv 74 / 74 40% 1 01.08.2027 -
Valdeci Arema Aktiv 103 / 96 40% 1 30.07.2027 -
Abdoulaye Diarra Bali United Aktiv 104 / 108 40% 2 29.07.2027 -
Harvey Saunders Tranmere Rovers Aktiv 86 / 73 40% 1 28.07.2027 -
Danilo Santacruz Madura United Aktiv 105 / 109 40% 2 27.07.2027 -
Michael Mellon Stevenage Aktiv 99 / 118 40% 1 27.07.2027 -
Mohcine Hassan PSBS Biak Aktiv 80 / 89 40% 2 24.07.2027 -
Michel Babatunde Levadia Aktiv 84 / 116 40% 1 23.07.2027 -
Sergio Castel Persik Abgelehnt 123 / 104 40% 2 22.07.2027 Mehr Infos nötig
Macula Birkirkara Aktiv 72 / 87 40% 1 22.07.2027 -
Walterson Cittadella Aktiv 99 / 99 40% 1 19.07.2027 -
Júnior Brandão Madura United Aktiv 100 / 109 40% 1 17.07.2027 -
Kazaki Nakagawa Semen Padang Aktiv 88 / 83 40% 1 16.07.2027 -
Andrey Okladnikov Yenisey Aktiv 105 / 110 40% 1 12.07.2027 -
Amar Rahmanović Krylya Sovetov Aktiv 106 / 101 40% 1 09.07.2027 -
Mikhail Gainov Dinamo Stavropol Aktiv 92 / 67 40% 1 09.07.2027 -
Anton Betyuzhnov Dinamo Vologda Aktiv 70 / 88 40% 1 08.07.2027 -
Amur Kalmykov Spartak Kostroma Aktiv 99 / 94 40% 1 07.07.2027 -
Aleksej Golijanin Sokol Aktiv 87 / 83 40% 1 25.05.2027 -
Alexandr Saplinov Volga Aktiv 88 / 105 40% 3 21.05.2027 -
Yance Sayuri Maluku Utara United Aktiv 84 / 84 30% 1 / 1m 12.05.2027 -
Dani Calvo Oviedo Aktiv 132 / 138 40% 1 02.08.2026 -
Alejandro Ramos Melgar Aktiv 109 / 114 40% 1 01.08.2026 -